Hourly Weather Canillo

Today, 29 September, Tuesday

Time Temperature Precipitation Wind Pressure Humidity
00:00 +5°C° 0 mm 1 mps 619 mmHg 80%
01:00 +5°C° 0 mm 1 mps 619 mmHg 78%
02:00 +5°C° 0 mm 1 mps 618 mmHg 75%
03:00 +5°C° 0 mm 1 mps 618 mmHg 73%
04:00 +5°C° 0 mm 1 mps 618 mmHg 70%
05:00 +5°C° 0 mm 1 mps 618 mmHg 67%
06:00 +5°C° 0 mm 1 mps 619 mmHg 67%
07:00 +8°C° 0 mm 1 mps 620 mmHg 64%
08:00 +10°C° 0 mm 1 mps 621 mmHg 61%
09:00 +11°C° 0 mm 0 mps 622 mmHg 58%
10:00 +14°C° 0 mm 1 mps 622 mmHg 54%
11:00 +15°C° 0 mm 1 mps 623 mmHg 51%
12:00 +16°C° 0 mm 1 mps 623 mmHg 47%
13:00 +16°C° 0 mm 1 mps 622 mmHg 49%
14:00 +16°C° 0 mm 1 mps 622 mmHg 52%
15:00 +15°C° 0 mm 1 mps 621 mmHg 54%
16:00 +13°C° 0 mm 1 mps 620 mmHg 63%
17:00 +11°C° 0 mm 1 mps 619 mmHg 73%
18:00 +7°C° 0 mm 0 mps 618 mmHg 82%
19:00 +8°C° 0 mm 1 mps 618 mmHg 81%
20:00 +8°C° 0 mm 1 mps 618 mmHg 80%
21:00 +7°C° 0 mm 1 mps 618 mmHg 80%
22:00 +7°C° 0 mm 1 mps 618 mmHg 78%
23:00 +7°C° 0 mm 1 mps 618 mmHg 76%

Tomorrow, 30 September, Wednesday

Time Temperature Precipitation Wind Pressure Humidity
00:00 +7°C° 0 mm 1 mps 618 mmHg 74%
01:00 +7°C° 0 mm 1 mps 618 mmHg 73%
02:00 +7°C° 0 mm 1 mps 617 mmHg 71%
03:00 +7°C° 0 mm 1 mps 617 mmHg 69%
04:00 +7°C° 0 mm 1 mps 617 mmHg 70%
05:00 +7°C° 0 mm 1 mps 617 mmHg 71%
06:00 +7°C° 0 mm 1 mps 617 mmHg 71%
07:00 +10°C° 0 mm 1 mps 618 mmHg 64%
08:00 +12°C° 0 mm 1 mps 619 mmHg 58%
09:00 +15°C° 0 mm 1 mps 620 mmHg 51%
10:00 +16°C° 0 mm 1 mps 621 mmHg 48%
11:00 +18°C° 0 mm 1 mps 621 mmHg 45%
12:00 +18°C° 0 mm 2 mps 621 mmHg 42%
13:00 +17°C° 0 mm 2 mps 620 mmHg 43%
14:00 +17°C° 0 mm 2 mps 620 mmHg 44%
15:00 +17°C° 0 mm 2 mps 619 mmHg 44%
16:00 +14°C° 0 mm 1 mps 618 mmHg 55%
17:00 +11°C° 0 mm 1 mps 617 mmHg 65%
18:00 +8°C° 0 mm 0 mps 616 mmHg 75%
19:00 +7°C° 0 mm 0 mps 616 mmHg 75%
20:00 +8°C° 0 mm 1 mps 616 mmHg 74%
21:00 +8°C° 0 mm 1 mps 616 mmHg 74%
22:00 +7°C° 0 mm 1 mps 615 mmHg 72%
23:00 +7°C° 0 mm 1 mps 615 mmHg 71%

Day after tomorrow, 1 October, Thursday

Time Temperature Precipitation Wind Pressure Humidity
00:00 +7°C° 0 mm 1 mps 615 mmHg 69%
01:00 +7°C° 0 mm 1 mps 614 mmHg 69%
02:00 +7°C° 0 mm 1 mps 614 mmHg 68%
03:00 +7°C° 0 mm 1 mps 614 mmHg 68%
04:00 +7°C° 0 mm 1 mps 613 mmHg 68%
05:00 +6°C° 0 mm 1 mps 613 mmHg 68%
06:00 +6°C° 0 mm 1 mps 613 mmHg 68%
07:00 +8°C° 0 mm 1 mps 614 mmHg 63%
08:00 +11°C° 0 mm 1 mps 615 mmHg 58%
09:00 +13°C° 0 mm 1 mps 615 mmHg 54%
10:00 +13°C° 0 mm 2 mps 615 mmHg 54%
11:00 +14°C° 0 mm 2 mps 616 mmHg 54%
12:00 +13°C° 0 mm 3 mps 616 mmHg 53%
13:00 +13°C° 0 mm 3 mps 615 mmHg 59%
14:00 +12°C° 0 mm 3 mps 615 mmHg 64%
15:00 +12°C° 0 mm 2 mps 614 mmHg 69%
16:00 +10°C° 0.1 mm 2 mps 613 mmHg 76%
17:00 +9°C° 0.1 mm 2 mps 613 mmHg 83%
18:00 +8°C° 0.1 mm 1 mps 612 mmHg 90%
19:00 +8°C° 0 mm 1 mps 612 mmHg 90%
20:00 +7°C° 0 mm 1 mps 611 mmHg 91%
21:00 +7°C° 0 mm 1 mps 611 mmHg 91%
22:00 +6°C° 0 mm 2 mps 610 mmHg 90%
23:00 +6°C° 0 mm 2 mps 609 mmHg 89%

2 October, Friday

Time Temperature Precipitation Wind Pressure Humidity
00:00 +5°C° 0 mm 3 mps 609 mmHg 88%
01:00 +5°C° 0 mm 3 mps 608 mmHg 88%
02:00 +5°C° 0 mm 3 mps 607 mmHg 89%
03:00 +5°C° 0 mm 4 mps 606 mmHg 89%
04:00 +5°C° 0.1 mm 4 mps 605 mmHg 90%
05:00 +5°C° 0.1 mm 3 mps 604 mmHg 90%
06:00 +5°C° 0.1 mm 3 mps 604 mmHg 91%
07:00 +5°C° 0.7 mm 3 mps 603 mmHg 91%
08:00 +6°C° 0.7 mm 4 mps 603 mmHg 90%
09:00 +6°C° 0.7 mm 4 mps 602 mmHg 90%
10:00 +5°C° 1.6 mm 3 mps 602 mmHg 92%
11:00 +4°C° 1.6 mm 3 mps 602 mmHg 95%
12:00 +4°C° 1.6 mm 3 mps 602 mmHg 97%
13:00 +4°C° 1.5 mm 2 mps 602 mmHg 96%
14:00 +3°C° 1.5 mm 2 mps 602 mmHg 94%
15:00 +2°C° 1.5 mm 2 mps 602 mmHg 92%
16:00 +2°C° 0.9 mm 2 mps 602 mmHg 93%
17:00 +2°C° 0.9 mm 1 mps 602 mmHg 94%
18:00 +1°C° 0.9 mm 1 mps 602 mmHg 94%
19:00 +1°C° 0.5 mm 1 mps 602 mmHg 94%
20:00 0°C° 0.5 mm 1 mps 603 mmHg 94%
21:00 0°C° 0.5 mm 1 mps 603 mmHg 94%
22:00 -1°C° 0 mm 1 mps 603 mmHg 93%
23:00 -1°C° 0 mm 1 mps 603 mmHg 92%

3 October, Saturday

Time Temperature Precipitation Wind Pressure Humidity
00:00 -4°C° 0 mm 2 mps 603 mmHg 92%
01:00 -4°C° 0 mm 2 mps 603 mmHg 91%
02:00 -4°C° 0 mm 2 mps 602 mmHg 90%
03:00 -4°C° 0 mm 2 mps 602 mmHg 90%
04:00 -4°C° 0 mm 2 mps 602 mmHg 90%
05:00 -4°C° 0 mm 2 mps 602 mmHg 90%
06:00 -4°C° 0 mm 2 mps 602 mmHg 90%
07:00 -3°C° 0 mm 2 mps 603 mmHg 88%
08:00 -1°C° 0 mm 3 mps 603 mmHg 87%
09:00 0°C° 0 mm 3 mps 603 mmHg 86%
10:00 -1°C° 0.3 mm 4 mps 603 mmHg 88%
11:00 -1°C° 0.3 mm 4 mps 604 mmHg 90%
12:00 -1°C° 0.3 mm 5 mps 604 mmHg 93%
13:00 -1°C° 1 mm 4 mps 604 mmHg 93%
14:00 -1°C° 1 mm 4 mps 604 mmHg 94%
15:00 -1°C° 1 mm 4 mps 604 mmHg 95%
16:00 0°C° 0.6 mm 3 mps 604 mmHg 96%
17:00 0°C° 0.6 mm 3 mps 605 mmHg 96%
18:00 +1°C° 0.6 mm 2 mps 605 mmHg 96%
19:00 +1°C° 0 mm 2 mps 606 mmHg 95%
20:00 +1°C° 0 mm 1 mps 606 mmHg 94%
21:00 +1°C° 0 mm 1 mps 606 mmHg 93%
22:00 +1°C° 0 mm 1 mps 607 mmHg 93%
23:00 0°C° 0 mm 1 mps 607 mmHg 93%

4 October, Sunday

Time Temperature Precipitation Wind Pressure Humidity
00:00 0°C° 0 mm 1 mps 607 mmHg 93%
01:00 0°C° 0 mm 1 mps 607 mmHg 94%
02:00 -2°C° 0 mm 2 mps 606 mmHg 94%
03:00 -2°C° 0 mm 2 mps 606 mmHg 95%
04:00 -2°C° 0 mm 2 mps 606 mmHg 95%
05:00 -2°C° 0 mm 3 mps 606 mmHg 94%
06:00 -4°C° 0 mm 3 mps 606 mmHg 93%
07:00 -1°C° 0.1 mm 3 mps 606 mmHg 90%
08:00 +1°C° 0.1 mm 2 mps 606 mmHg 88%
09:00 +2°C° 0.1 mm 2 mps 607 mmHg 85%
10:00 +3°C° 0.1 mm 2 mps 607 mmHg 86%
11:00 +4°C° 0.1 mm 2 mps 607 mmHg 86%
12:00 +5°C° 0.1 mm 1 mps 608 mmHg 87%
13:00 +5°C° 0.5 mm 1 mps 608 mmHg 88%
14:00 +5°C° 0.5 mm 1 mps 608 mmHg 88%
15:00 +4°C° 0.5 mm 1 mps 608 mmHg 89%
16:00 +4°C° 0.5 mm 1 mps 608 mmHg 91%
17:00 +3°C° 0.5 mm 1 mps 608 mmHg 94%
18:00 +2°C° 0.5 mm 1 mps 608 mmHg 96%
19:00 +2°C° 0 mm 1 mps 608 mmHg 95%
20:00 +1°C° 0 mm 1 mps 608 mmHg 94%
21:00 +1°C° 0 mm 1 mps 608 mmHg 93%
22:00 0°C° 0 mm 1 mps 608 mmHg 91%
23:00 0°C° 0 mm 1 mps 608 mmHg 89%
Show more

We Need Your Consent

Meteoprog and our Service Providers may store and access personal data such as cookies, device identifiers or other similar technologies on your device and process such data to personalise content and ads, as well as provide social media features and to analyse the traffic.

  • Store and/or access information on your device

    Cookies, device identifiers or other information can be stored or accessed on your device for the purposes indicated above.

  • Personalised ads and content, ad and content measurement, audience insights, and products development

    Ads and content can be personalised based on a profile. More data can be added to better personalise ads and content. Ad and content performance can be measured. Insights about the audience who saw the ads and content can be derived. Such data can be used to develop or improve user’s experience, systems and software.

By clicking ‘I Agree’ you will allow the use of indicated cookies, device identifiers, web beacons or other similar technologies. Your settings can be changed in the browser on your device.

For certain purposes, legitimate interests may be relied on, rather than consent. You can read more about this in our Privacy and Cookie Policy.